Погода в Апшах

Россия / Республика Дагестан     42°36′39″N   47°10′24″E
темп.,
°C
ветер,
м/с
пор.,
м/с
влажн.,
%
обл.,
%
осадки,
мм/ч
давл.,
гПа
погр.,
м
25 июня, сб
сб2500:00+13ю119224 0.1 101012
03:00+12ююз118887 0.1 101010
06:00+14з007337 0.0 101066
09:00+18св2169100 0.0 1010621
12:00+20св337066 0.0 1009972
15:00+18св328297 0.3 1009626
18:00+17ссв2289100 0.8 1010409
21:00+15з1193100 1.3 101129
26 июня, вс
вс2600:00+14ююз2292100 0.1 101126
03:00+14ю1194100 1.1 101011
06:00+15в118426 0.0 101093
09:00+18всв2277100 0.0 1009486
12:00+20всв3370100 0.1 1008943
15:00+19ссв3272100 0.2 1008895
18:00+16с2485100 3.4 1009403
21:00+15ююз2289100 4.6 101126
27 июня, пн
пн2700:00+14з2290100 0.6 101122
03:00+13юз32930 0.6 101129
06:00+15зюз22872 0.0 1011100
09:00+20ссз23660 0.0 1010634
12:00+21ссв446525 0.0 10111039
15:00+20с567176 0.1 10121076
18:00+18ссз348293 0.1 1012565
21:00+15з339399 0.1 101344
28 июня, вт
вт2800:00+15з2389100 0.0 101340
03:00+14зсз2289100 0.0 101219
06:00+15з23820 0.0 1011127
09:00+20ссз34590 0.0 1010619
12:00+21с44540 0.0 1010911
15:00+21ссз66531 0.0 10101187
18:00+17с35725 0.1 1012667
21:00+13з22902 0.6 101521
29 июня, ср
ср2900:00+13зюз2289100 0.4 101527
03:00+13юз118673 0.4 101413
06:00+15зюз117723 0.0 101493
09:00+19ссв21524 0.0 10141011
12:00+20ссв435178 0.0 10131630
15:00+19св2257100 0.0 1013976
18:00+17св227491 0.1 1014387
21:00+15всв229899 0.3 101592